Schneifelwetter: Wetterstation Hallschlag, 537 m . NN
Wetterdaten: Dienstag, 03.06.2008
Datum Zeit Temp. A. Temp. 2 Feuchte A. Luftdruck Regen Wind Richtung Richtung Sonnenschein Helligkeit T Regen Taupunkt Windchill
03.06.2008 00:01 16,0 C 15,5 C 87 % 1010 hPa 0,0 l/m 12,7 km/h (3 Bft) W22.5 270 0 min 0 lux 0,00 min 13,8 C 13,2 C
03.06.2008 00:16 15,6 C 15,0 C 86 % 1010 hPa 0,0 l/m 5,3 km/h (1 Bft) W-SW22.5 250 0 min 0 lux 0,00 min 13,3 C 15,6 C
03.06.2008 00:31 15,4 C 14,9 C 89 % 1010 hPa 0,0 l/m 15,6 km/h (3 Bft) SW22.5 235 0 min 0 lux 0,00 min 13,6 C 11,5 C
03.06.2008 00:46 15,5 C 14,9 C 90 % 1010 hPa 0,0 l/m 15,2 km/h (3 Bft) SW67.5 215 0 min 0 lux 0,00 min 13,9 C 11,7 C
03.06.2008 01:01 15,5 C 14,9 C 90 % 1011 hPa 0,0 l/m 15,2 km/h (3 Bft) SW45 230 0 min 0 lux 0,00 min 13,9 C 11,7 C
03.06.2008 01:16 15,6 C 15,2 C 90 % 1011 hPa 0,0 l/m 19,0 km/h (3 Bft) SW45 235 0 min 0 lux 0,00 min 14,0 C 10,8 C
03.06.2008 01:31 15,6 C 15,3 C 90 % 1010 hPa 0,0 l/m 18,6 km/h (3 Bft) W-SW22.5 240 0 min 0 lux 0,00 min 14,0 C 10,9 C
03.06.2008 01:46 15,6 C 15,3 C 88 % 1011 hPa 0,0 l/m 23,5 km/h (4 Bft) SW45 235 0 min 0 lux 0,00 min 13,6 C 9,7 C
03.06.2008 02:01 15,2 C 14,8 C 87 % 1011 hPa 0,0 l/m 25,4 km/h (4 Bft) W-SW45 240 0 min 0 lux 0,00 min 13,0 C 8,8 C
03.06.2008 02:16 14,9 C 14,4 C 88 % 1011 hPa 0,0 l/m 12,5 km/h (3 Bft) W-SW22.5 240 0 min 0 lux 0,00 min 12,9 C 12,0 C
03.06.2008 02:31 14,6 C 14,1 C 89 % 1011 hPa 0,0 l/m 7,5 km/h (2 Bft) SW45 230 0 min 0 lux 0,00 min 12,8 C 14,0 C
03.06.2008 02:46 14,4 C 13,8 C 88 % 1011 hPa 0,0 l/m 0,0 km/h (0 Bft) SW 230 0 min 0 lux 0,00 min 12,4 C 14,4 C
03.06.2008 03:01 14,2 C 13,6 C 88 % 1011 hPa 0,3 l/m 0,0 km/h (0 Bft) W-SW 255 0 min 0 lux 15,00 min 12,2 C 14,2 C
03.06.2008 03:16 14,0 C 13,5 C 89 % 1011 hPa 0,0 l/m 0,0 km/h (0 Bft) W-SW 245 0 min 0 lux 0,00 min 12,2 C 14,0 C
03.06.2008 03:31 14,0 C 13,4 C 89 % 1011 hPa 0,0 l/m 0,0 km/h (0 Bft) SW22.5 220 0 min 0 lux 0,00 min 12,2 C 14,0 C
03.06.2008 03:46 13,9 C 13,3 C 89 % 1011 hPa 0,0 l/m 0,0 km/h (0 Bft) S-SW 210 0 min 0 lux 0,00 min 12,1 C 13,9 C
03.06.2008 04:01 13,9 C 13,3 C 90 % 1011 hPa 0,0 l/m 0,0 km/h (0 Bft) W-SW 250 0 min 0 lux 0,00 min 12,3 C 13,9 C
03.06.2008 04:16 13,9 C 13,3 C 90 % 1011 hPa 0,0 l/m 7,9 km/h (2 Bft) SW22.5 235 0 min 0 lux 0,00 min 12,3 C 13,0 C
03.06.2008 04:31 13,9 C 13,3 C 91 % 1011 hPa 0,0 l/m 5,7 km/h (1 Bft) W-SW 250 0 min 0 lux 0,00 min 12,5 C 13,9 C
03.06.2008 04:46 13,8 C 13,2 C 91 % 1010 hPa 0,0 l/m 7,4 km/h (2 Bft) W-SW22.5 250 0 min 0 lux 0,00 min 12,4 C 13,2 C
03.06.2008 05:01 13,7 C 13,2 C 91 % 1010 hPa 0,0 l/m 4,4 km/h (1 Bft) W-SW22.5 245 0 min 0 lux 0,00 min 12,3 C 13,7 C
03.06.2008 05:16 13,7 C 13,3 C 92 % 1010 hPa 0,0 l/m 13,5 km/h (3 Bft) W-SW22.5 250 0 min 56 lux 0,00 min 12,4 C 10,2 C
03.06.2008 05:31 13,7 C 13,3 C 92 % 1010 hPa 0,0 l/m 13,2 km/h (3 Bft) W-SW22.5 255 0 min 199 lux 0,00 min 12,4 C 10,3 C
03.06.2008 05:46 13,8 C 13,4 C 93 % 1010 hPa 0,0 l/m 15,3 km/h (3 Bft) W-SW22.5 255 0 min 512 lux 0,00 min 12,7 C 9,6 C
03.06.2008 06:01 13,8 C 13,5 C 93 % 1010 hPa 0,0 l/m 16,0 km/h (3 Bft) W-SW22.5 250 0 min 1,35 klux 0,00 min 12,7 C 9,4 C
03.06.2008 06:16 14,0 C 13,6 C 93 % 1010 hPa 0,0 l/m 13,7 km/h (3 Bft) SW45 235 0 min 3,38 klux 0,00 min 12,9 C 10,4 C
03.06.2008 06:31 14,1 C 13,7 C 93 % 1010 hPa 0,0 l/m 12,8 km/h (3 Bft) W-SW45 250 0 min 3,25 klux 0,00 min 13,0 C 10,9 C
03.06.2008 06:46 14,1 C 13,9 C 93 % 1011 hPa 0,0 l/m 14,3 km/h (3 Bft) SW45 225 0 min 3,85 klux 0,00 min 13,0 C 10,3 C
03.06.2008 07:01 14,3 C 14,0 C 93 % 1011 hPa 0,0 l/m 11,8 km/h (2 Bft) SW45 235 0 min 6,19 klux 0,00 min 13,2 C 11,5 C
03.06.2008 07:16 14,4 C 14,1 C 91 % 1011 hPa 0,0 l/m 18,6 km/h (3 Bft) W-SW67.5 240 0 min 4,47 klux 0,00 min 12,9 C 9,4 C
03.06.2008 07:31 14,3 C 14,2 C 91 % 1011 hPa 0,3 l/m 19,9 km/h (4 Bft) SW45 230 0 min 12,1 klux 15,00 min 12,8 C 8,9 C
03.06.2008 07:46 14,5 C 14,6 C 91 % 1011 hPa 0,0 l/m 14,4 km/h (3 Bft) SW45 235 0 min 11,8 klux 0,00 min 13,0 C 10,8 C
03.06.2008 08:01 14,6 C 14,5 C 90 % 1011 hPa 0,0 l/m 17,1 km/h (3 Bft) SW45 215 0 min 8,47 klux 0,00 min 13,0 C 10,0 C
03.06.2008 08:17 14,6 C 14,5 C 89 % 1011 hPa 0,0 l/m 15,8 km/h (3 Bft) S-SW67.5 210 0 min 6,82 klux 0,00 min 12,8 C 10,4 C
03.06.2008 08:31 14,4 C 14,5 C 89 % 1011 hPa 0,0 l/m 14,0 km/h (3 Bft) SW45 230 0 min 8,33 klux 0,00 min 12,6 C 10,8 C
03.06.2008 08:46 14,8 C 14,8 C 89 % 1012 hPa 0,0 l/m 8,4 km/h (2 Bft) SW45 230 0 min 11,6 klux 0,00 min 13,0 C 13,7 C
03.06.2008 09:01 15,0 C 15,2 C 88 % 1012 hPa 0,0 l/m 13,0 km/h (3 Bft) S22.5 185 0 min 21,4 klux 0,00 min 13,0 C 11,9 C
03.06.2008 09:16 15,6 C 15,9 C 87 % 1012 hPa 0,0 l/m 15,2 km/h (3 Bft) SW45 225 0 min 27,9 klux 0,00 min 13,4 C 11,9 C
03.06.2008 09:31 16,3 C 16,5 C 83 % 1012 hPa 0,0 l/m 16,7 km/h (3 Bft) S-SW45 205 0 min 30,4 klux 0,00 min 13,4 C 12,3 C
03.06.2008 09:46 16,6 C 16,9 C 82 % 1012 hPa 0,0 l/m 21,3 km/h (4 Bft) W-SW45 250 0 min 27,9 klux 0,00 min 13,5 C 11,5 C
03.06.2008 10:01 16,8 C 17,1 C 81 % 1012 hPa 0,0 l/m 17,5 km/h (3 Bft) SW45 215 0 min 28,3 klux 0,00 min 13,5 C 12,7 C
03.06.2008 10:17 17,2 C 17,6 C 80 % 1012 hPa 0,0 l/m 22,6 km/h (4 Bft) W-SW45 255 0 min 34,8 klux 0,00 min 13,7 C 12,0 C
03.06.2008 10:31 17,1 C 17,5 C 80 % 1012 hPa 0,0 l/m 17,0 km/h (3 Bft) SW45 235 0 min 32,0 klux 0,00 min 13,6 C 13,2 C
03.06.2008 10:46 17,1 C 17,3 C 79 % 1012 hPa 0,0 l/m 14,9 km/h (3 Bft) S-SW45 205 0 min 32,8 klux 0,00 min 13,4 C 13,8 C
03.06.2008 11:01 17,8 C 18,5 C 78 % 1012 hPa 0,0 l/m 17,6 km/h (3 Bft) SW45 215 0 min 46,7 klux 0,00 min 13,9 C 13,9 C
03.06.2008 11:16 18,6 C 19,1 C 75 % 1012 hPa 0,0 l/m 22,7 km/h (4 Bft) W45 260 0 min 40,0 klux 0,00 min 14,1 C 13,9 C
03.06.2008 11:31 18,2 C 18,3 C 74 % 1012 hPa 0,0 l/m 20,8 km/h (4 Bft) W-SW45 245 0 min 31,3 klux 0,00 min 13,5 C 13,7 C
03.06.2008 11:46 18,6 C 19,3 C 75 % 1012 hPa 0,0 l/m 23,0 km/h (4 Bft) W-SW45 250 0 min 50,9 klux 0,00 min 14,1 C 13,8 C
03.06.2008 12:02 18,7 C 18,9 C 73 % 1012 hPa 0,0 l/m 22,0 km/h (4 Bft) S-SW67.5 200 0 min 35,7 klux 0,00 min 13,8 C 14,1 C
03.06.2008 12:16 18,2 C 19,0 C 75 % 1012 hPa 0,0 l/m 19,1 km/h (3 Bft) SW45 235 0 min 42,9 klux 0,00 min 13,7 C 14,1 C
03.06.2008 12:31 18,3 C 18,6 C 73 % 1013 hPa 0,0 l/m 25,5 km/h (4 Bft) W-SW45 250 0 min 41,5 klux 0,00 min 13,4 C 13,0 C
03.06.2008 12:46 18,4 C 19,4 C 75 % 1013 hPa 0,0 l/m 25,1 km/h (4 Bft) W-SW45 240 0 min 50,6 klux 0,00 min 13,9 C 13,2 C
03.06.2008 13:01 19,8 C 21,0 C 74 % 1012 hPa 0,0 l/m 23,3 km/h (4 Bft) SW45 235 15 min 70,4 klux 0,00 min 15,0 C 15,4 C
03.06.2008 13:16 20,7 C 22,3 C 68 % 1012 hPa 0,0 l/m 28,2 km/h (4 Bft) W-SW45 250 15 min 114 klux 0,00 min 14,6 C 15,9 C
03.06.2008 13:31 21,3 C 24,6 C 66 % 1012 hPa 0,0 l/m 24,1 km/h (4 Bft) S-SW45 205 15 min 110 klux 0,00 min 14,7 C 17,3 C
03.06.2008 13:46 20,6 C 22,9 C 64 % 1012 hPa 0,0 l/m 23,8 km/h (4 Bft) W45 260 0 min 41,1 klux 0,00 min 13,5 C 16,4 C
03.06.2008 14:01 20,4 C 23,5 C 66 % 1012 hPa 0,0 l/m 28,1 km/h (4 Bft) W45 265 15 min 107 klux 0,00 min 13,8 C 15,5 C
03.06.2008 14:16 20,1 C 23,1 C 66 % 1013 hPa 0,0 l/m 23,9 km/h (4 Bft) W67.5 260 15 min 108 klux 0,00 min 13,5 C 15,7 C
03.06.2008 14:31 20,2 C 23,8 C 63 % 1013 hPa 0,0 l/m 31,5 km/h (5 Bft) W-SW22.5 255 15 min 101 klux 0,00 min 12,9 C 14,8 C
03.06.2008 14:46 20,4 C 25,1 C 63 % 1013 hPa 0,0 l/m 33,2 km/h (5 Bft) W-SW67.5 245 15 min 102 klux 0,00 min 13,1 C 14,9 C
03.06.2008 15:01 20,8 C 25,8 C 63 % 1013 hPa 0,0 l/m 27,8 km/h (4 Bft) W-SW67.5 255 15 min 97,8 klux 0,00 min 13,5 C 16,1 C
03.06.2008 15:16 20,2 C 23,5 C 63 % 1013 hPa 0,0 l/m 27,5 km/h (4 Bft) W-SW45 240 15 min 109 klux 0,00 min 12,9 C 15,3 C
03.06.2008 15:31 20,5 C 24,2 C 63 % 1013 hPa 0,0 l/m 28,0 km/h (4 Bft) W-SW22.5 255 0 min 57,3 klux 0,00 min 13,2 C 15,7 C
03.06.2008 15:47 20,8 C 24,5 C 63 % 1013 hPa 0,0 l/m 27,0 km/h (4 Bft) W-SW67.5 245 16 min 96,0 klux 0,00 min 13,5 C 16,2 C
03.06.2008 16:01 20,7 C 24,8 C 62 % 1013 hPa 0,0 l/m 20,0 km/h (4 Bft) S45 175 14 min 83,4 klux 0,00 min 13,2 C 17,1 C
03.06.2008 16:16 20,8 C 24,3 C 61 % 1013 hPa 0,0 l/m 24,2 km/h (4 Bft) SW45 230 15 min 85,8 klux 0,00 min 13,0 C 16,6 C
03.06.2008 16:31 21,0 C 25,5 C 59 % 1013 hPa 0,0 l/m 21,8 km/h (4 Bft) S-SW67.5 205 15 min 85,2 klux 0,00 min 12,7 C 17,2 C
03.06.2008 16:46 20,6 C 24,5 C 62 % 1013 hPa 0,0 l/m 21,0 km/h (4 Bft) W-SW67.5 240 15 min 83,6 klux 0,00 min 13,1 C 16,8 C
03.06.2008 17:01 20,2 C 22,9 C 60 % 1013 hPa 0,0 l/m 29,8 km/h (5 Bft) W-SW45 255 15 min 70,6 klux 0,00 min 12,2 C 15,0 C
03.06.2008 17:16 19,7 C 22,5 C 63 % 1013 hPa 0,0 l/m 18,5 km/h (3 Bft) W-SW45 250 15 min 66,1 klux 0,00 min 12,5 C 16,1 C
03.06.2008 17:32 19,4 C 21,0 C 64 % 1013 hPa 0,0 l/m 18,0 km/h (3 Bft) SW45 225 0 min 26,4 klux 0,00 min 12,4 C 15,8 C
03.06.2008 17:46 19,2 C 20,3 C 65 % 1013 hPa 0,0 l/m 15,0 km/h (3 Bft) SW45 230 0 min 16,5 klux 0,00 min 12,5 C 16,3 C
03.06.2008 18:01 19,2 C 20,6 C 65 % 1013 hPa 0,0 l/m 10,0 km/h (2 Bft) W-SW22.5 240 0 min 32,4 klux 0,00 min 12,5 C 17,8 C
03.06.2008 18:16 19,6 C 21,3 C 62 % 1013 hPa 0,0 l/m 14,3 km/h (3 Bft) S-SW45 195 0 min 36,6 klux 0,00 min 12,1 C 16,9 C
03.06.2008 18:31 19,7 C 21,8 C 64 % 1013 hPa 0,0 l/m 16,8 km/h (3 Bft) S22.5 190 0 min 42,8 klux 0,00 min 12,7 C 16,5 C
03.06.2008 18:46 20,1 C 23,5 C 62 % 1012 hPa 0,0 l/m 17,8 km/h (3 Bft) W45 260 0 min 45,1 klux 0,00 min 12,6 C 16,8 C
03.06.2008 19:01 20,4 C 24,0 C 61 % 1012 hPa 0,0 l/m 15,6 km/h (3 Bft) SW45 230 0 min 43,3 klux 0,00 min 12,6 C 17,6 C
03.06.2008 19:16 20,8 C 24,2 C 60 % 1012 hPa 0,0 l/m 12,7 km/h (3 Bft) SW45 230 0 min 42,5 klux 0,00 min 12,7 C 18,8 C
03.06.2008 19:31 20,4 C 22,8 C 60 % 1012 hPa 0,0 l/m 10,0 km/h (2 Bft) SW45 235 0 min 23,8 klux 0,00 min 12,4 C 19,1 C
03.06.2008 19:46 20,1 C 22,9 C 60 % 1013 hPa 0,0 l/m 0,1 km/h (0 Bft) SW22.5 225 0 min 25,6 klux 0,00 min 12,1 C 20,1 C
03.06.2008 20:01 19,7 C 22,8 C 61 % 1013 hPa 0,0 l/m 6,7 km/h (2 Bft) S22.5 185 0 min 21,6 klux 0,00 min 12,0 C 19,6 C
03.06.2008 20:16 19,5 C 21,4 C 61 % 1013 hPa 0,0 l/m 0,4 km/h (0 Bft) W 260 0 min 15,6 klux 0,00 min 11,8 C 19,5 C
03.06.2008 20:31 19,0 C 20,1 C 62 % 1013 hPa 0,0 l/m 3,7 km/h (1 Bft) W 260 0 min 14,0 klux 0,00 min 11,6 C 19,0 C
03.06.2008 20:46 18,6 C 18,3 C 64 % 1013 hPa 0,0 l/m 1,1 km/h (1 Bft) SW 220 0 min 10,2 klux 0,00 min 11,7 C 18,6 C
03.06.2008 21:01 17,9 C 16,9 C 65 % 1013 hPa 0,0 l/m 5,9 km/h (2 Bft) SW22.5 215 0 min 5,81 klux 0,00 min 11,2 C 17,9 C
03.06.2008 21:16 17,1 C 15,4 C 67 % 1013 hPa 0,0 l/m 3,3 km/h (1 Bft) W-SW 245 0 min 3,03 klux 0,00 min 10,9 C 17,1 C
03.06.2008 21:31 16,2 C 14,1 C 68 % 1013 hPa 0,0 l/m 2,8 km/h (1 Bft) W-SW22.5 240 0 min 1,45 klux 0,00 min 10,3 C 16,2 C
03.06.2008 21:46 15,2 C 13,0 C 70 % 1013 hPa 0,0 l/m 0,0 km/h (0 Bft) SW 235 0 min 552 lux 0,00 min 9,8 C 15,2 C
03.06.2008 22:01 14,4 C 12,8 C 73 % 1013 hPa 0,0 l/m 0,0 km/h (0 Bft) W-SW 240 0 min 208 lux 0,00 min 9,6 C 14,4 C
03.06.2008 22:16 14,0 C 12,9 C 76 % 1013 hPa 0,0 l/m 0,0 km/h (0 Bft) SW 235 0 min 35 lux 0,00 min 9,8 C 14,0 C
03.06.2008 22:31 13,9 C 12,9 C 77 % 1013 hPa 0,0 l/m 0,0 km/h (0 Bft) SW 235 0 min 6 lux 0,00 min 9,9 C 13,9 C
03.06.2008 22:46 13,9 C 12,8 C 78 % 1013 hPa 0,0 l/m 0,0 km/h (0 Bft) SW 235 0 min 0 lux 0,00 min 10,1 C 13,9 C
03.06.2008 23:01 13,8 C 12,6 C 79 % 1014 hPa 0,0 l/m 0,0 km/h (0 Bft) SW 235 0 min 0 lux 0,00 min 10,2 C 13,8 C
03.06.2008 23:16 13,7 C 12,3 C 80 % 1014 hPa 0,0 l/m 5,0 km/h (1 Bft) W-SW 245 0 min 0 lux 0,00 min 10,3 C 13,7 C
03.06.2008 23:31 13,6 C 12,2 C 81 % 1014 hPa 0,0 l/m 1,6 km/h (1 Bft) W-SW 255 0 min 0 lux 0,00 min 10,4 C 13,6 C
03.06.2008 23:46 13,4 C 11,9 C 81 % 1014 hPa 0,0 l/m 0,0 km/h (0 Bft) W 265 0 min 0 lux 0,00 min 10,2 C 13,4 C
_ Min-Zeit 23:46 23:46 16:31 00:01 - 02:46 - - - - - 22:01 02:01
Minimum _ 13,4 C 11,9 C 59 % 1010 hPa - 0,0 km/h (0 Bft) - - - - - 9,6 C 8,8 C
_ Max-Zeit 13:31 15:01 05:46 23:01 03:01 14:46 - - 15:47 13:16 03:01 13:01 19:46
Maximum _ 21,3 C 25,8 C 93 % 1014 hPa 0,3 l/m 33,2 km/h
W-SW (5 Bft)
- - 16 min 114 klux 15,00 min 15,0 C 20,1 C
Durchschnitt _ 16,9 C 17,6 C 77 % 1012 hPa #0,6 l/m 14,1 km/h (3 Bft) W-SW - #4:00 h 27,6 klux #30 min. 12,7 C 14,1 C